[[{"header":{"parameterUnit":"m.s-1","parameterCategory":1,"la1":30.2991,"la2":30.254,"lo1":-89.0895,"lo2":-89.0444,"dy":0.0017,"dx":0.0017,"nx":28,"ny":28,"refTime":"2025-01-11T03:00:00:Z","depth":0,"parameterNumber":2,"parameterNumberName":"U-component_of_WINDS"},"data":[0,0,0,0,0,0,0,0,0,0,0,0,0,0,0,0,0,0,0,0,0,0,0,0,0,0,0,0,0,0,0,0,0,0,0,0,0,0,0,0,0,0,0,0,0,0,0,0,0,0,0,0,0,0,0,0,0,0,6.735,6.7352,0,6.7518,6.752,6.7521,6.743,6.7425,6.7421,6.7416,6.7583,6.7591,6.76,0,0,0,0,0,0,0,0,0,0,0,0,0,6.6949,6.6957,6.735,6.7352,6.7354,6.7517,6.752,6.7522,6.7431,6.7425,6.7419,6.7414,6.758,6.759,6.7601,0,0,0,0,0,0,0,0,0,0,0,0,0,6.712,6.6959,6.7349,6.7328,6.7328,6.7517,6.752,6.7523,6.7432,6.7425,6.7418,6.7412,6.7577,6.7589,6.7602,6.782,0,0,6.7642,6.7648,0,0,0,0,0,0,0,0,6.7111,6.7135,6.7329,6.733,6.733,6.7446,6.7439,6.7622,6.7434,6.7392,6.7416,6.7408,6.7543,6.7558,6.7604,6.7828,6.7835,6.7643,6.7651,6.7657,6.766,0,0,0,0,0,0,0,6.7099,6.7127,6.7416,6.7332,6.7333,6.731,6.7327,6.7474,6.7504,6.7395,6.7389,6.741,6.7541,6.7592,6.7608,6.7837,6.7643,6.7654,6.7663,6.7668,6.8253,6.826,0,0,0,0,0,0,6.7089,6.7118,6.741,6.7421,6.7202,6.7323,6.7342,6.7416,6.7502,6.7508,6.7416,6.7406,6.7573,6.7592,6.7613,6.7876,6.7657,6.7669,6.7676,6.8245,6.8255,6.8263,0,0,0,0,0,0,6.7081,6.7116,6.7404,6.7268,6.7303,6.7337,6.7421,6.7422,6.7473,6.7518,6.7522,6.7462,6.7568,6.7595,6.7771,6.7881,6.7675,6.7687,6.8236,6.8248,6.8259,6.8403,0,0,0,0,0,0,6.707,6.7113,6.7196,6.7271,6.7311,6.7559,6.7428,6.7431,6.7496,6.7484,6.7562,6.7568,6.7565,6.7752,6.7784,6.7895,6.7697,6.8226,6.8241,6.8255,6.8388,6.8418,6.8443,0,0,0,0,0,6.7056,6.7228,6.7201,6.7236,6.7415,6.7566,6.7588,6.7582,6.7505,6.7589,6.7619,6.7566,6.7864,6.7771,6.7806,6.7922,6.8219,6.8237,6.8254,6.8376,6.8412,6.8443,0,0,0,0,0,0,6.7161,6.7237,6.7208,6.7409,6.7483,6.755,6.7655,6.762,6.7714,6.7699,6.7686,6.7705,6.7889,6.7923,6.7817,6.814,6.803,6.8055,6.8111,6.8145,6.8172,6.8159,6.7708,0,0,0,0,0,6.7209,6.7326,6.7385,6.7557,6.7596,6.762,6.7685,6.7675,6.7749,6.7779,6.7821,6.7894,6.8004,6.8077,6.818,6.8394,6.8411,6.8492,6.852,6.8542,6.8563,6.8682,6.872,6.832,6.832,6.832,0,0,6.7307,6.7363,6.7436,6.758,6.7635,6.7757,6.7646,6.7778,6.7868,6.7798,6.7968,6.8002,6.8083,6.828,6.8369,6.8314,6.8679,6.8564,6.8582,6.8591,6.8704,6.8742,6.8776,6.8332,6.833,6.8328,0,0,6.7547,6.7601,6.7752,6.7812,6.7899,6.7914,6.7951,6.8026,6.8047,6.8219,6.817,6.8277,6.8466,6.8527,6.8583,6.8855,6.8811,6.8889,6.9032,6.9148,6.918,6.9207,6.9306,6.9341,6.8911,6.8911,6.8912,0,6.7657,6.7839,6.7834,6.7972,6.8038,6.7985,6.8139,6.8196,6.8311,6.8358,6.8296,6.8537,6.8587,6.88,6.8867,6.8913,6.8956,6.8879,6.9176,6.9204,6.923,6.9323,6.936,6.892,6.8919,6.8918,6.8918,0,6.7972,6.8099,6.8211,6.8328,6.8407,6.8552,6.8569,6.8649,6.8635,6.8658,6.8835,6.8894,6.9011,6.9061,6.9046,6.9273,6.9237,6.9177,6.9065,6.9277,6.9365,6.9401,6.8933,6.893,6.8927,6.8925,0,0,6.8278,6.8396,6.8437,6.8491,6.8586,6.8685,6.8829,6.8947,6.9017,6.91,6.9221,6.9387,6.9333,6.9397,6.9389,6.9491,6.9706,6.9418,6.942,6.947,6.9963,7.0007,7.0049,6.9678,6.9685,6.9691,6.9956,0,6.8526,6.878,6.8782,6.9016,6.9135,6.909,6.9216,6.9289,6.9316,6.9421,6.9449,6.9568,6.9487,6.9526,6.9625,6.9659,6.9804,6.964,6.9791,6.9796,6.9771,7.0095,7.0141,7.0389,6.999,6.9996,7.0,0,6.8847,6.8945,6.9192,6.9275,6.9325,6.9438,6.9549,6.965,6.9733,6.9745,6.9821,6.9799,6.9947,6.9834,7.0039,6.9927,6.999,7.0016,7.0026,7.0038,6.991,7.0116,7.0467,7.0504,7.0054,7.005,7.0046,0,6.9048,6.9242,6.9415,6.9463,6.9564,6.9645,6.9691,6.9767,6.9839,6.9936,6.9983,7.0095,7.0156,7.0244,7.0254,7.017,7.0461,7.0347,7.0476,7.0476,7.0537,7.0533,7.0903,7.0579,7.0578,7.0578,7.0577,0,6.9323,6.9476,6.9508,6.9614,6.9785,6.9788,6.9957,6.9996,7.0066,7.0179,7.0147,7.0254,7.0261,7.0372,7.0381,7.0551,7.0578,7.0593,7.0593,7.0596,7.0594,7.0635,7.0618,7.0588,7.0585,7.0583,7.0582,0,6.9575,6.9602,6.9788,6.9871,6.9896,7.0018,7.0088,7.0191,7.0217,7.0362,7.0396,7.0437,7.0567,7.0586,7.0737,7.0743,7.0947,7.093,7.092,7.0917,7.1045,7.1033,7.1454,7.151,7.115,7.1153,7.1156,0,6.9748,6.9865,6.9963,7.0038,7.0089,7.021,7.0286,7.0295,7.0374,7.0481,7.0571,7.0698,7.08,7.1009,7.1052,7.1168,7.1153,7.1293,7.117,7.117,7.1156,7.1149,7.1161,7.1315,7.1319,7.1323,7.1325,0,7.0054,7.0063,7.0173,7.0292,7.0383,7.0475,7.0562,7.0626,7.0646,7.0738,7.0872,7.0951,7.1109,7.1235,7.1352,7.1398,7.1367,7.1365,7.1401,7.1403,7.1393,7.1402,7.0984,7.1354,7.1351,7.1349,7.1347,7.1346,7.0271,7.0376,7.0462,7.0587,7.0655,7.0739,7.0841,7.0883,7.0995,7.1125,7.1124,7.1272,7.1356,7.151,7.1565,7.1681,7.1635,7.1686,7.17,7.1712,7.1725,7.1377,7.1702,7.1701,7.17,7.1699,7.1699,0,7.0576,7.0631,7.0747,7.0873,7.0973,7.0938,7.1034,7.1119,7.125,7.1333,7.1436,7.1592,7.1717,7.1772,7.1895,7.1977,7.1966,7.2009,7.2002,7.2014,7.1758,7.1715,7.2016,7.2016,7.2016,7.2016,7.2016,7.2016,7.0746,7.0921,7.0942,7.1152,7.1205,7.1352,7.141,7.1488,7.1554,7.1731,7.1836,7.1872,7.1945,7.2074,7.2187,7.22,7.2247,7.2298,7.2304,7.2064,7.2031,7.2001,7.196,7.2308,7.2308,7.255,7.2552,7.2554]},{"header":{"parameterUnit":"m.s-1","parameterCategory":1,"la1":30.2991,"la2":30.254,"lo1":-89.0895,"lo2":-89.0444,"dy":0.0017,"dx":0.0017,"nx":28,"ny":28,"refTime":"2025-01-11T03:00:00:Z","depth":0,"parameterNumber":3,"parameterNumberName":"V-component_of_WINDS"},"data":[0,0,0,0,0,0,0,0,0,0,0,0,0,0,0,0,0,0,0,0,0,0,0,0,0,0,0,0,0,0,0,0,0,0,0,0,0,0,0,0,0,0,0,0,0,0,0,0,0,0,0,0,0,0,0,0,0,0,-3.5326,-3.5325,0,-3.5283,-3.5283,-3.5282,-3.5191,-3.5189,-3.5187,-3.5185,-3.5141,-3.5142,-3.5142,0,0,0,0,0,0,0,0,0,0,0,0,0,-3.5329,-3.533,-3.5326,-3.5325,-3.5325,-3.5283,-3.5283,-3.5282,-3.5191,-3.5189,-3.5187,-3.5184,-3.5141,-3.5142,-3.5142,0,0,0,0,0,0,0,0,0,0,0,0,0,-3.5312,-3.533,-3.5326,-3.5274,-3.5269,-3.5284,-3.5283,-3.5282,-3.5192,-3.5189,-3.5186,-3.5183,-3.5141,-3.5142,-3.5142,-3.5203,0,0,-3.5145,-3.5145,0,0,0,0,0,0,0,0,-3.5313,-3.5311,-3.5282,-3.5278,-3.5272,-3.5239,-3.5268,-3.5256,-3.5192,-3.5221,-3.5185,-3.5182,-3.5176,-3.5174,-3.5172,-3.5201,-3.5199,-3.5145,-3.5146,-3.5146,-3.5146,0,0,0,0,0,0,0,-3.5314,-3.5313,-3.5309,-3.5282,-3.5276,-3.5254,-3.5248,-3.5265,-3.5215,-3.5218,-3.5212,-3.5208,-3.5173,-3.5171,-3.517,-3.5199,-3.5145,-3.5146,-3.5146,-3.5147,-3.5278,-3.528,0,0,0,0,0,0,-3.5323,-3.5314,-3.531,-3.5308,-3.5286,-3.5256,-3.525,-3.5253,-3.5214,-3.5206,-3.521,-3.5204,-3.5171,-3.5169,-3.5168,-3.5238,-3.5146,-3.5147,-3.5147,-3.5275,-3.5278,-3.5281,0,0,0,0,0,0,-3.5323,-3.5323,-3.5312,-3.5309,-3.5306,-3.5259,-3.5263,-3.5253,-3.5252,-3.5208,-3.5199,-3.5218,-3.5169,-3.5167,-3.5196,-3.5235,-3.5147,-3.5148,-3.5271,-3.5276,-3.528,-3.5377,0,0,0,0,0,0,-3.5324,-3.5324,-3.5346,-3.531,-3.5307,-3.534,-3.5266,-3.5255,-3.5254,-3.5245,-3.5213,-3.5205,-3.5167,-3.5195,-3.5197,-3.5235,-3.5149,-3.5267,-3.5273,-3.5278,-3.537,-3.5384,-3.5396,0,0,0,0,0,-3.5324,-3.5374,-3.5348,-3.5348,-3.5333,-3.5342,-3.534,-3.5295,-3.5257,-3.5279,-3.5252,-3.5206,-3.5231,-3.5199,-3.52,-3.5239,-3.5265,-3.5272,-3.5278,-3.5364,-3.5381,-3.5396,0,0,0,0,0,0,-3.5415,-3.5369,-3.5338,-3.5379,-3.5366,-3.5327,-3.5353,-3.5315,-3.5312,-3.5303,-3.5248,-3.5241,-3.5278,-3.5261,-3.5226,-3.5296,-3.5241,-3.5248,-3.5306,-3.5322,-3.5335,-3.5338,-3.5149,0,0,0,0,0,-3.544,-3.5451,-3.541,-3.545,-3.5445,-3.5401,-3.5403,-3.537,-3.5353,-3.5347,-3.5321,-3.5307,-3.5312,-3.5316,-3.5318,-3.5368,-3.536,-3.5395,-3.5408,-3.5419,-3.5426,-3.5453,-3.5468,-3.5304,-3.5303,-3.5303,0,0,-3.5491,-3.5467,-3.5477,-3.5468,-3.5453,-3.5466,-3.5396,-3.5413,-3.5422,-3.5349,-3.5375,-3.5356,-3.5337,-3.5377,-3.5393,-3.5364,-3.547,-3.5428,-3.5437,-3.5438,-3.5461,-3.5477,-3.5491,-3.5308,-3.5307,-3.5307,0,0,-3.5591,-3.5574,-3.5606,-3.5594,-3.5573,-3.5544,-3.5552,-3.552,-3.5505,-3.553,-3.5476,-3.5487,-3.5496,-3.5485,-3.548,-3.558,-3.5538,-3.5582,-3.565,-3.5677,-3.569,-3.5701,-3.5737,-3.5751,-3.5589,-3.5589,-3.5589,0,-3.5657,-3.5675,-3.5627,-3.5648,-3.5645,-3.5582,-3.5614,-3.5604,-3.5586,-3.5586,-3.5554,-3.5565,-3.5547,-3.5585,-3.5609,-3.5608,-3.5616,-3.5585,-3.5692,-3.5703,-3.5712,-3.5746,-3.576,-3.5595,-3.5594,-3.5594,-3.5593,0,-3.5757,-3.5771,-3.5799,-3.5783,-3.5784,-3.5811,-3.5768,-3.5775,-3.5743,-3.5718,-3.5745,-3.5722,-3.5719,-3.5725,-3.5694,-3.5759,-3.5742,-3.5702,-3.5644,-3.5734,-3.5765,-3.5778,-3.5603,-3.5601,-3.5599,-3.5598,0,0,-3.5911,-3.5871,-3.5882,-3.5875,-3.5849,-3.5859,-3.5883,-3.5881,-3.5888,-3.5878,-3.5898,-3.5908,-3.5872,-3.5867,-3.5834,-3.5857,-3.5939,-3.5815,-3.5813,-3.5839,-3.601,-3.604,-3.6056,-3.5912,-3.5914,-3.5916,-3.6012,0,-3.6005,-3.6044,-3.6003,-3.605,-3.6063,-3.6004,-3.6025,-3.6012,-3.599,-3.5998,-3.5973,-3.5981,-3.5932,-3.5929,-3.595,-3.5925,-3.5972,-3.5917,-3.5929,-3.593,-3.5935,-3.6072,-3.6103,-3.6195,-3.6024,-3.6026,-3.6027,0,-3.6118,-3.6115,-3.6164,-3.6137,-3.6141,-3.6161,-3.6156,-3.6164,-3.6149,-3.6131,-3.6128,-3.6088,-3.6111,-3.6057,-3.6088,-3.6051,-3.6054,-3.6043,-3.6045,-3.6044,-3.5984,-3.6074,-3.6223,-3.6237,-3.6046,-3.6044,-3.6043,0,-3.6226,-3.6234,-3.6265,-3.626,-3.6229,-3.6245,-3.6233,-3.6215,-3.6217,-3.6214,-3.6214,-3.6214,-3.6213,-3.6214,-3.6176,-3.614,-3.6213,-3.6154,-3.6199,-3.62,-3.6216,-3.6215,-3.6367,-3.6219,-3.6219,-3.6218,-3.6218,0,-3.6335,-3.6367,-3.6313,-3.6332,-3.6367,-3.6321,-3.6357,-3.6339,-3.6324,-3.6339,-3.6288,-3.6303,-3.6252,-3.6262,-3.6233,-3.6264,-3.6264,-3.6251,-3.6242,-3.6255,-3.6257,-3.6255,-3.6248,-3.6222,-3.6221,-3.622,-3.622,0,-3.646,-3.6425,-3.6455,-3.6424,-3.6417,-3.6445,-3.6418,-3.6435,-3.641,-3.643,-3.6432,-3.6393,-3.6403,-3.6366,-3.6368,-3.6349,-3.6395,-3.6376,-3.64,-3.6394,-3.6441,-3.6437,-3.6597,-3.6616,-3.6456,-3.6458,-3.6459,0,-3.6531,-3.6555,-3.6528,-3.6534,-3.6525,-3.6536,-3.6538,-3.6494,-3.6499,-3.6485,-3.6504,-3.6509,-3.6511,-3.6529,-3.6502,-3.6504,-3.6485,-3.6541,-3.6485,-3.6497,-3.6486,-3.6485,-3.6488,-3.6552,-3.6554,-3.6556,-3.6557,0,-3.6662,-3.6644,-3.6649,-3.6649,-3.6653,-3.6651,-3.6645,-3.6653,-3.6606,-3.6614,-3.6623,-3.6625,-3.6629,-3.6636,-3.6633,-3.6621,-3.6582,-3.6575,-3.6586,-3.6598,-3.6612,-3.6606,-3.6432,-3.6571,-3.657,-3.6569,-3.6568,-3.6568,-3.6762,-3.6781,-3.6765,-3.6773,-3.6765,-3.6761,-3.6776,-3.6754,-3.6761,-3.6761,-3.6735,-3.675,-3.6736,-3.6729,-3.6721,-3.6732,-3.6706,-3.6721,-3.6725,-3.6729,-3.6738,-3.6611,-3.6732,-3.6731,-3.6731,-3.6731,-3.673,0,-3.689,-3.6878,-3.6885,-3.688,-3.6886,-3.685,-3.6842,-3.685,-3.6864,-3.6855,-3.6859,-3.6871,-3.6877,-3.6852,-3.6855,-3.6869,-3.6852,-3.6872,-3.687,-3.6868,-3.6761,-3.6751,-3.6886,-3.6886,-3.6886,-3.6886,-3.6886,-3.6886,-3.6957,-3.6988,-3.6969,-3.6995,-3.6982,-3.6997,-3.6996,-3.6993,-3.6985,-3.7001,-3.7007,-3.699,-3.6975,-3.6977,-3.6982,-3.6974,-3.6978,-3.7004,-3.699,-3.689,-3.6875,-3.6861,-3.6852,-3.7005,-3.7005,-3.7097,-3.7097,-3.7098]}]]